TimeCST,TemperatureF,Dew PointF,Humidity,Sea Level PressureIn,VisibilityMPH,Wind Direction,Wind SpeedMPH,Gust SpeedMPH,PrecipitationIn,Events,Conditions,WindDirDegrees,DateUTC
12:53 AM,30.0,19.0,64,30.27,10.0,ENE,11.5,-,N/A,,Overcast,60,2013-02-21 06:53:00
1:53 AM,30.0,19.0,64,30.27,10.0,NE,11.5,-,N/A,,Overcast,50,2013-02-21 07:53:00
2:53 AM,30.0,19.9,66,30.25,10.0,ENE,9.2,-,0.00,,Overcast,60,2013-02-21 08:53:00
3:53 AM,28.9,19.9,69,30.23,10.0,NE,12.7,-,0.01,,Overcast,50,2013-02-21 09:53:00
4:53 AM,28.9,19.9,69,30.20,10.0,East,12.7,21.9,N/A,,Scattered Clouds,80,2013-02-21 10:53:00
5:53 AM,28.9,19.9,69,30.19,10.0,ENE,10.4,-,N/A,,Clear,70,2013-02-21 11:53:00
6:53 AM,28.9,19.9,69,30.17,10.0,NE,11.5,-,0.00,,Overcast,50,2013-02-21 12:53:00
7:53 AM,30.0,21.0,69,30.16,10.0,ENE,11.5,-,0.00,,Overcast,60,2013-02-21 13:53:00
8:53 AM,30.0,21.0,69,30.11,10.0,ENE,16.1,24.2,0.01,,Overcast,70,2013-02-21 14:53:00
9:53 AM,30.9,21.9,69,30.12,10.0,ENE,13.8,19.6,0.00,,Overcast,60,2013-02-21 15:53:00
10:53 AM,30.9,23.0,72,30.05,10.0,ENE,12.7,21.9,0.00,,Overcast,70,2013-02-21 16:53:00
11:20 AM,30.2,24.8,80,30.01,7.0,East,12.7,-,0.02,Rain,Light Freezing Rain,80,2013-02-21 17:20:00
11:53 AM,30.9,24.1,76,29.99,7.0,ENE,11.5,-,0.05,Rain,Light Freezing Rain,70,2013-02-21 17:53:00
12:11 PM,30.2,24.8,80,29.99,4.0,ENE,11.5,17.3,0.04,Rain,Light Freezing Rain,60,2013-02-21 18:11:00
12:18 PM,32.0,24.8,75,29.99,2.5,ENE,9.2,18.4,0.07,Rain-Thunderstorm,Light Freezing Rain,60,2013-02-21 18:18:00
12:31 PM,32.0,26.6,80,30.00,3.0,ENE,9.2,-,0.12,Rain,Light Freezing Rain,60,2013-02-21 18:31:00
12:53 PM,32.0,27.0,82,30.01,2.5,ENE,10.4,-,0.23,Rain,Light Freezing Rain,60,2013-02-21 18:53:00
1:38 PM,32.0,28.4,87,29.95,3.0,ENE,12.7,19.6,0.26,Rain,Light Freezing Rain,60,2013-02-21 19:38:00
1:53 PM,32.0,27.0,82,29.93,2.5,ENE,13.8,-,0.33,Rain,Light Freezing Rain,70,2013-02-21 19:53:00
2:03 PM,32.0,28.4,87,29.91,3.0,ENE,12.7,-,0.03,Rain,Light Freezing Rain,70,2013-02-21 20:03:00
2:10 PM,32.0,28.4,87,29.91,2.5,NE,15.0,21.9,0.04,Rain,Light Freezing Rain,50,2013-02-21 20:10:00
2:26 PM,32.0,28.4,87,29.89,1.8,NE,21.9,26.5,0.11,Rain,Light Freezing Rain,40,2013-02-21 20:26:00
2:53 PM,32.0,28.9,88,29.89,1.2,ENE,21.9,33.4,0.27,Rain,Light Freezing Rain,70,2013-02-21 20:53:00
3:05 PM,33.8,28.4,81,29.89,2.0,NE,16.1,31.1,0.06,Rain,Light Freezing Rain,50,2013-02-21 21:05:00
3:15 PM,33.8,28.4,81,29.88,1.8,NE,16.1,24.2,0.10,Rain-Thunderstorm,Light Freezing Rain,50,2013-02-21 21:15:00
3:19 PM,33.8,28.4,81,29.88,1.5,NE,13.8,24.2,0.14,Rain-Thunderstorm,Heavy Rain,50,2013-02-21 21:19:00
3:25 PM,33.8,28.4,81,29.91,2.0,ENE,11.5,-,0.16,Rain,Rain,60,2013-02-21 21:25:00
3:28 PM,33.8,28.4,81,29.93,3.0,NE,10.4,-,0.17,Rain,Light Rain,50,2013-02-21 21:28:00
3:36 PM,33.8,28.4,81,29.90,2.5,ENE,15.0,21.9,0.21,Rain-Thunderstorm,Heavy Thunderstorms and Rain,70,2013-02-21 21:36:00
3:43 PM,33.8,28.4,81,29.89,2.0,ENE,13.8,21.9,0.23,Rain-Thunderstorm,Light Freezing Rain,70,2013-02-21 21:43:00
3:50 PM,33.8,28.4,81,29.88,2.5,ENE,13.8,-,0.24,Rain-Thunderstorm,Light Freezing Rain,60,2013-02-21 21:50:00
3:53 PM,33.1,28.9,85,29.89,3.0,ENE,15.0,-,0.24,Rain,Light Freezing Rain,60,2013-02-21 21:53:00
4:06 PM,33.8,28.4,81,29.88,3.0,ENE,12.7,20.7,0.01,Rain,Light Rain,60,2013-02-21 22:06:00
4:15 PM,33.8,30.2,87,29.87,3.0,ENE,11.5,-,0.02,Rain,Light Rain,60,2013-02-21 22:15:00
4:53 PM,33.1,30.0,89,29.88,2.0,ENE,11.5,-,0.06,Rain,Light Rain,70,2013-02-21 22:53:00
5:16 PM,33.8,30.2,87,29.85,3.0,ENE,10.4,-,N/A,Rain,Light Rain,60,2013-02-21 23:16:00
5:39 PM,33.8,30.2,87,29.86,4.0,ENE,8.1,-,0.05,Rain,Light Freezing Rain,60,2013-02-21 23:39:00
5:53 PM,34.0,30.9,89,29.88,3.0,NE,9.2,-,0.05,Rain,Light Freezing Rain,50,2013-02-21 23:53:00
6:07 PM,33.8,30.2,87,29.87,2.5,NE,6.9,-,0.01,Rain,Light Freezing Rain,50,2013-02-22 00:07:00
6:15 PM,33.8,30.2,87,29.87,3.0,ENE,10.4,-,0.01,Rain,Light Freezing Rain,60,2013-02-22 00:15:00
6:51 PM,33.8,30.2,87,29.86,2.5,ENE,9.2,-,0.02,Rain,Light Freezing Rain,70,2013-02-22 00:51:00
6:53 PM,34.0,30.9,89,29.88,2.5,ENE,10.4,-,0.02,Rain,Light Freezing Rain,70,2013-02-22 00:53:00
7:06 PM,33.8,30.2,87,29.85,3.0,East,9.2,-,0.00,,Overcast,80,2013-02-22 01:06:00
7:53 PM,34.0,32.0,92,29.84,4.0,East,6.9,-,0.01,,Overcast,80,2013-02-22 01:53:00
9:19 PM,33.8,32.0,93,29.84,2.5,ENE,4.6,-,N/A,,Overcast,60,2013-02-22 03:19:00
9:32 PM,33.8,32.0,93,29.85,3.0,Calm,Calm,-,N/A,,Overcast,0,2013-02-22 03:32:00
9:53 PM,34.0,32.0,92,29.86,3.0,Calm,Calm,-,N/A,,Overcast,0,2013-02-22 03:53:00
10:53 PM,34.0,32.0,92,29.85,4.0,WSW,3.5,-,N/A,,Overcast,250,2013-02-22 04:53:00
11:53 PM,34.0,32.0,92,29.86,3.0,Calm,Calm,-,N/A,,Overcast,0,2013-02-22 05:53:00